Terminal Aerodrome Forecast
Issued by NWS

Home | Current Version | Previous Version | Text Only | Print | Product List | Glossary Off
Versions: 1 2 3 4 5 6 7 8 9 10 11 12 13 14 15 16 17 18 19 20 21

000
FTUS43 KGRB 281500 AAA
TAFAUW
TAF AMD
KAUW 281507Z 2815/2912 26012G20KT P6SM SCT010 OVC018
     FM281900 26016G26KT P6SM SCT018 BKN040
      TEMPO 2819/2823 BKN018
     FM290000 27013G20KT P6SM OVC030=

USA.gov is the U.S. government's official web portal to all federal, state and local government web resources and services.